Regional Weather Roundup
Issued by NWS Austin/San Antonio, TX

Home | Current Version | Previous Version | Text Only | Print | Product List | Glossary On
Versions: 1 2 3 4 5 6 7 8 9 10 11 12 13 14 15 16 17 18 19 20 21 22 23 24 25 26 27 28 29 30 31 32 33 34 35 36 37 38 39 40 41 42 43 44 45 46 47 48 49 50
000
ASUS44 KEWX 210910
RWREWX
SOUTH TEXAS REGIONAL WEATHER ROUNDUP
NATIONAL WEATHER SERVICE AUSTIN/SAN ANTONIO TX
400 AM CDT SUN APR 21 2019

NOTE: "FAIR" INDICATED FEW OR NO CLOUDS BELOW 12,000 FEET WITH NO
SIGNIFICANT WEATHER AND/OR OBSTRUCTIONS TO VISIBILITY.

* - THESE STATIONS ARE NOT NWS OR FAA STATIONS...AND ARE NOT SUBJECT
    TO NWS AND FAA QUALITY CONTROL.

TXZ171-172-183>190-211000-
TEXAS HILL COUNTRY AND EDWARDS PLATEAU

CITY           SKY/WX    TMP DP  RH WIND       PRES   REMARKS
JUNCTION       CLEAR     63  52  67 S10       29.92S
*LLANO         CLEAR     61  52  72 SE5       29.96S
BURNET         CLEAR     61  51  70 S9        29.95F
*HORSESHOE BAY CLEAR     61  51  68 S8        29.93F
*KERRVILLE     CLEAR     56  52  85 SE8       29.96F
*FREDERICKSBRG CLEAR     56  50  78 S3        29.96S
*ROCKSPRINGS     N/A     59  52  77 SE14G22   29.97F
*BOERNE STAGE  CLEAR     55  54  94 CALM      29.97S
*CASTROVILLE   CLEAR     58  56  94 CALM      29.97S
HONDO          CLEAR     58  55  90 E6        29.94F
*UVALDE        CLEAR     55  54  95 E8        29.94S
DEL RIO        CLEAR     65  55  70 E8        29.88S
LAUGHLIN AFB   CLEAR     63  55  77 SE12      29.89R
CARRIZO SPRGS  CLEAR     59  54  82 SE5       29.89F
*FAITH RANCH   CLEAR     66  57  72 SE7       29.89S
$$

TXZ173-191>194-202-209-217>225-228-211000-
CENTRAL AND SOUTH CENTRAL TEXAS

CITY           SKY/WX    TMP DP  RH WIND       PRES   REMARKS
GEORGETOWN     PTCLDY    61  56  83 S7        29.96F
AUSTIN/BERGSTM CLEAR     57  54  89 S3        29.95F
AUSTIN/MABRY   PTCLDY    59  55  87 VRB3      29.96F
*AUSTIN/EXEC   PTCLDY    57  57 100 S6        29.96S
*LAGO VISTA    CLEAR     61  54  77 S13G18    29.95F
SAN MARCOS     CLEAR     56  55  97 S3        29.97S
NEW BRAUNFELS  CLEAR     55  53  93 SW3       29.95F
RANDOLPH AFB   CLEAR     57  56  96 CALM      29.96F
PT SAN ANTONIO CLEAR     59  57  94 SE5       29.93F
SAN ANTONIO    PTCLDY    59  56  89 SE6       29.96F
STINSON FIELD  CLEAR     59  53  80 E3        29.94F
*LA GRANGE     CLEAR     59  59 100 S5        29.94F
*GIDDINGS      CLEAR     61  60  97 S3        29.97F
*GONZALES      CLEAR     59  59  99 SE3       29.96S
$$

TXZ163>164-176>182-195>201-210>213-226-227-235-211000-
SOUTHEAST TEXAS

CITY           SKY/WX    TMP DP  RH WIND       PRES   REMARKS
COLLEGE STN    CLEAR     57  55  93 SE6       29.98S
*BRYAN         CLEAR     55  55 100 SE3       29.99S
*CALDWELL      CLEAR     56  55  97 CALM      29.98S
*CROCKETT        N/A     54  50  87 CALM      30.03S
*BRENHAM       CLEAR     57  57 100 CALM      29.99S
HUNTSVILLE     PTCLDY    59  53  80 S6        29.99S
CONROE         CLEAR     49  49 100 CALM      30.00F
HOUSTON BUSH   CLEAR     57  54  89 CALM      30.00S
HOUSTON HOBBY  FAIR      58  52  80 SE3       30.00S
*HOUSTON SW AP FAIR      51  51  99 CALM      30.01S
PEARLAND       FAIR      57  54  89 CALM      30.01F
HOUSTON HOOKS  FAIR      55  53  93 CALM      30.00S
ELLINGTON FLD  NOT AVBL
SUGAR LAND     FAIR      57  54  89 CALM      29.99F
*HOUSTON EXEC  FAIR      55  54  94 CALM      30.01S
*CLEVELAND MUN FAIR      51  51 100 CALM      30.02S
*WHARTON       PTCLDY    56  54  93 CALM      30.00S
*COLUMBUS      FAIR      56  52  85 SE3       29.99F
*EAGLE LAKE    SUNNY     56  55  95 CALM      29.99S
$$

TXZ214>216-236>238-211000-
THE UPPER TEXAS COAST

CITY           SKY/WX    TMP DP  RH WIND       PRES   REMARKS
*ORANGE        FAIR      53  53 100 CALM      30.05S
PORT ARTHUR    FAIR      56  53  90 S5        30.02S
GALVESTON      FAIR      66  57  72 S9        30.01F
ANGLETON       FAIR      54  52  93 CALM      30.00F
*BAY CITY      PTCLDY    59  58  95 SE3       29.99S
PALACIOS       PTCLDY    68  64  87 S9        29.98S
$$

TXZ229>234-239>247-211000-
TEXAS COASTAL BEND AND RIO GRANDE PLAINS

CITY           SKY/WX    TMP DP  RH WIND       PRES   REMARKS
VICTORIA       PTCLDY    59  57  93 SE6       29.97F
*BEEVILLE      PTCLDY    59  55  88 E6        29.95S
ROCKPORT       CLEAR     69  62  78 SE13      29.95F
*PORT ARANSAS  PTCLDY    71  64  78 SE16      29.97F
*PORT LAVACA   PTCLDY    64  61  93 SE6       29.97F
*INGLESIDE     CLEAR     69  64  82 S9        29.95F
CORPUS CHRISTI CLEAR     64  61  90 SE7       29.94F
CORPUS NAS     CLEAR     73  66  78 S14       29.94F
*ROBSTOWN      NOT AVBL
ALICE          CLEAR     60  58  92 SE6       29.93F
KINGSVILLE NAS CLEAR     67  63  87 SE9       29.93F
COTULLA        CLEAR     60  58  92 SE9       29.91F
LAREDO         PTCLDY    66  61  84 SE10      29.89F
$$

TXZ248>255-211000-
DEEP SOUTH TEXAS

CITY           SKY/WX    TMP DP  RH WIND       PRES   REMARKS
BROWNSVILLE    FAIR      69  64  84 SE12      29.94F
PORT ISABEL    FAIR      70  63  78 SE15      29.93F
HARLINGEN      CLEAR     66  61  84 SE10      29.93F
*HEBBRONVILLE  CLOUDY    64  60  88 SE12      29.93S
MCALLEN        PTCLDY    70  65  84 SE16G23   29.92F
*WESLACO       CLOUDY    66  63  89 S10       29.92S
FALFURRIAS     CLEAR     64  60  87 SE7       29.93F
EDINBURG       FAIR      69  64  85 SE8       29.94S
*ZAPATA        CLOUDY    68  62  81 SE9G17    29.90F
$$

TXZ213>215-236>238-242>244-246-247-251-254-255-211000-
CMAN STATIONS

STATION/POSITION TIME  TEMP    WIND        PRES    WAVE
                       AIR SEA DIR/SP/G            HT/PER
                 (UTC) (F)     (DEG/KT/KT) (MB)    (FT/S)
SABINE PASS      0848   63 71  200/  6/  8 1018.4
SEA RIM ST PARK  0900   67     190/ 12/ 14 1016.6
NORTH JETTY/GLS  0842   69 69  190/ 13/ 14 1015.9
EAGLE POINT      0842   68 70  200/  8/  9 1016.3
MORGANS POINT    0842   66 70  180/  2/  5 1016.1
PORT O`CONNOR    0848   69 71  160/ 15/ 17 1014.5
PORT ARANSAS     0900   71 72  140/ 21/ 23 1013.8
MALAQUITE BEACH  0848   72 74  130/ 16/ 20 1013.5
BAFFIN BAY       0848   71 71  140/ 12/ 17 1014.1
PORT ISABEL      0848   71 75  150/ 13/ 17 1014.2
$$



USA.gov is the U.S. government's official web portal to all federal, state and local government web resources and services.